When you browse on this site, cookies collect data to enhance your experience and personalize the content and advertising you see.
Visit our Privacy Policy to learn more. By continuing to use the site, you agree to this use of cookies and data.
  • In United Kingdom
  • List of Countries
  • For 7 days
  • Water Temperature
  • Weather Map
  • Weather Widgets
  • user-avatar
    Login

    Hourly Weather Abertillery

    Today, 23 October, Wednesday

    Time Temperature Precipitation Wind Pressure Humidity
    00:00 +6°C° 0 mm 0 mps 744 mmHg 90%
    01:00 +6°C° 0 mm 0 mps 743 mmHg 91%
    02:00 +7°C° 0 mm 1 mps 742 mmHg 92%
    03:00 +7°C° 0 mm 1 mps 742 mmHg 93%
    04:00 +7°C° 0 mm 1 mps 741 mmHg 95%
    05:00 +7°C° 0 mm 1 mps 741 mmHg 96%
    06:00 +7°C° 0 mm 1 mps 741 mmHg 97%
    07:00 +8°C° 0 mm 1 mps 741 mmHg 95%
    08:00 +9°C° 0 mm 1 mps 740 mmHg 94%
    09:00 +9°C° 0 mm 2 mps 740 mmHg 92%
    10:00 +9°C° 0 mm 2 mps 740 mmHg 90%
    11:00 +10°C° 0 mm 3 mps 739 mmHg 87%
    12:00 +11°C° 0 mm 3 mps 739 mmHg 85%
    13:00 +11°C° 0 mm 3 mps 738 mmHg 85%
    14:00 +11°C° 0 mm 3 mps 737 mmHg 85%
    15:00 +12°C° 0 mm 2 mps 736 mmHg 85%
    16:00 +10°C° 0 mm 2 mps 736 mmHg 88%
    17:00 +10°C° 0 mm 2 mps 736 mmHg 91%
    18:00 +9°C° 0 mm 2 mps 735 mmHg 94%
    19:00 +10°C° 0.1 mm 1 mps 735 mmHg 94%
    20:00 +10°C° 0.1 mm 1 mps 735 mmHg 95%
    21:00 +9°C° 0.1 mm 1 mps 735 mmHg 96%
    22:00 +9°C° 0 mm 1 mps 734 mmHg 96%
    23:00 +9°C° 0 mm 1 mps 734 mmHg 96%

    Tomorrow, 24 October, Thursday

    Time Temperature Precipitation Wind Pressure Humidity
    00:00 +8°C° 0 mm 0 mps 733 mmHg 96%
    01:00 +8°C° 0 mm 1 mps 733 mmHg 95%
    02:00 +8°C° 0 mm 1 mps 732 mmHg 95%
    03:00 +8°C° 0 mm 1 mps 732 mmHg 94%
    04:00 +8°C° 0 mm 1 mps 732 mmHg 93%
    05:00 +8°C° 0 mm 1 mps 731 mmHg 92%
    06:00 +8°C° 0 mm 1 mps 731 mmHg 91%
    07:00 +8°C° 0.1 mm 1 mps 731 mmHg 91%
    08:00 +9°C° 0.1 mm 1 mps 731 mmHg 91%
    09:00 +9°C° 0.1 mm 1 mps 731 mmHg 91%
    10:00 +10°C° 0.1 mm 3 mps 732 mmHg 87%
    11:00 +11°C° 0.1 mm 4 mps 732 mmHg 83%
    12:00 +12°C° 0.1 mm 5 mps 732 mmHg 78%
    13:00 +12°C° 0.1 mm 5 mps 732 mmHg 78%
    14:00 +10°C° 0.1 mm 6 mps 733 mmHg 78%
    15:00 +10°C° 0.1 mm 6 mps 733 mmHg 78%
    16:00 +9°C° 0.1 mm 6 mps 734 mmHg 82%
    17:00 +8°C° 0.1 mm 5 mps 734 mmHg 86%
    18:00 +6°C° 0.1 mm 4 mps 735 mmHg 91%
    19:00 +6°C° 0 mm 4 mps 736 mmHg 90%
    20:00 +5°C° 0 mm 3 mps 737 mmHg 90%
    21:00 +4°C° 0 mm 3 mps 738 mmHg 89%
    22:00 +5°C° 0 mm 2 mps 738 mmHg 85%
    23:00 +5°C° 0 mm 2 mps 739 mmHg 81%

    Day after tomorrow, 25 October, Friday

    Time Temperature Precipitation Wind Pressure Humidity
    00:00 +5°C° 0 mm 2 mps 739 mmHg 78%
    01:00 +6°C° 0 mm 1 mps 739 mmHg 78%
    02:00 +6°C° 0 mm 1 mps 740 mmHg 79%
    03:00 +6°C° 0 mm 1 mps 740 mmHg 80%
    04:00 +6°C° 0 mm 1 mps 740 mmHg 81%
    05:00 +5°C° 0 mm 1 mps 740 mmHg 81%
    06:00 +5°C° 0 mm 1 mps 740 mmHg 82%
    07:00 +6°C° 0.3 mm 1 mps 739 mmHg 85%
    08:00 +5°C° 0.3 mm 2 mps 739 mmHg 89%
    09:00 +6°C° 0.3 mm 2 mps 738 mmHg 92%
    10:00 +7°C° 1 mm 3 mps 737 mmHg 93%
    11:00 +7°C° 1 mm 5 mps 736 mmHg 95%
    12:00 +8°C° 1 mm 6 mps 734 mmHg 96%
    13:00 +8°C° 0.9 mm 9 mps 733 mmHg 94%
    14:00 +11°C° 0.9 mm 11 mps 731 mmHg 92%
    15:00 +12°C° 0.9 mm 14 mps 730 mmHg 89%
    16:00 +12°C° 1.4 mm 14 mps 730 mmHg 90%
    17:00 +13°C° 1.4 mm 14 mps 730 mmHg 92%
    18:00 +13°C° 1.4 mm 14 mps 730 mmHg 93%
    19:00 +10°C° 1.4 mm 12 mps 731 mmHg 92%
    20:00 +9°C° 1.4 mm 10 mps 732 mmHg 92%
    21:00 +7°C° 1.4 mm 8 mps 733 mmHg 91%
    22:00 +7°C° 0.1 mm 6 mps 733 mmHg 91%
    23:00 +6°C° 0.1 mm 5 mps 734 mmHg 90%

    26 October, Saturday

    Time Temperature Precipitation Wind Pressure Humidity
    00:00 +5°C° 0.1 mm 3 mps 735 mmHg 90%
    01:00 +5°C° 0 mm 3 mps 735 mmHg 90%
    02:00 +5°C° 0 mm 3 mps 736 mmHg 91%
    03:00 +6°C° 0 mm 2 mps 737 mmHg 91%
    04:00 +5°C° 0 mm 2 mps 737 mmHg 90%
    05:00 +4°C° 0 mm 3 mps 738 mmHg 89%
    06:00 +3°C° 0 mm 3 mps 738 mmHg 89%
    07:00 +3°C° 0 mm 3 mps 739 mmHg 85%
    08:00 +4°C° 0 mm 3 mps 739 mmHg 81%
    09:00 +4°C° 0 mm 3 mps 740 mmHg 77%
    10:00 +5°C° 0 mm 4 mps 740 mmHg 74%
    11:00 +6°C° 0 mm 5 mps 741 mmHg 72%
    12:00 +7°C° 0 mm 5 mps 741 mmHg 69%
    13:00 +7°C° 0 mm 5 mps 741 mmHg 69%
    14:00 +7°C° 0 mm 5 mps 741 mmHg 70%
    15:00 +6°C° 0 mm 5 mps 741 mmHg 70%
    16:00 +5°C° 0 mm 5 mps 742 mmHg 73%
    17:00 +4°C° 0 mm 4 mps 742 mmHg 76%
    18:00 +3°C° 0 mm 4 mps 743 mmHg 79%
    19:00 +3°C° 0 mm 4 mps 743 mmHg 81%
    20:00 +2°C° 0 mm 3 mps 744 mmHg 82%
    21:00 +2°C° 0 mm 3 mps 744 mmHg 84%
    22:00 +2°C° 0 mm 3 mps 745 mmHg 84%
    23:00 +3°C° 0 mm 2 mps 745 mmHg 84%

    27 October, Sunday

    Time Temperature Precipitation Wind Pressure Humidity
    00:00 +2°C° 0 mm 2 mps 746 mmHg 85%
    01:00 +2°C° 0 mm 2 mps 746 mmHg 86%
    02:00 +3°C° 0 mm 1 mps 746 mmHg 87%
    03:00 +3°C° 0 mm 1 mps 746 mmHg 88%
    04:00 +3°C° 0 mm 1 mps 746 mmHg 86%
    05:00 +3°C° 0 mm 1 mps 747 mmHg 85%
    06:00 +4°C° 0 mm 1 mps 747 mmHg 83%
    07:00 +4°C° 0 mm 1 mps 747 mmHg 81%
    08:00 +5°C° 0 mm 1 mps 747 mmHg 78%
    09:00 +5°C° 0 mm 2 mps 748 mmHg 76%
    10:00 +6°C° 0 mm 2 mps 748 mmHg 76%
    11:00 +5°C° 0 mm 3 mps 748 mmHg 76%
    12:00 +6°C° 0 mm 4 mps 748 mmHg 76%
    13:00 +6°C° 0 mm 4 mps 747 mmHg 77%
    14:00 +6°C° 0 mm 4 mps 747 mmHg 79%
    15:00 +6°C° 0 mm 4 mps 747 mmHg 80%
    16:00 +5°C° 0.1 mm 4 mps 747 mmHg 81%
    17:00 +5°C° 0.1 mm 5 mps 746 mmHg 82%
    18:00 +3°C° 0.1 mm 5 mps 746 mmHg 84%
    19:00 +3°C° 0.2 mm 5 mps 746 mmHg 84%
    20:00 +3°C° 0.2 mm 6 mps 746 mmHg 84%
    21:00 +3°C° 0.2 mm 6 mps 747 mmHg 85%
    22:00 +2°C° 0.7 mm 6 mps 746 mmHg 87%
    23:00 +2°C° 0.7 mm 7 mps 746 mmHg 90%

    28 October, Monday

    Time Temperature Precipitation Wind Pressure Humidity
    00:00 +2°C° 0.7 mm 7 mps 746 mmHg 92%
    01:00 +2°C° 0.6 mm 7 mps 746 mmHg 93%
    02:00 +2°C° 0.6 mm 7 mps 745 mmHg 93%
    03:00 +2°C° 0.6 mm 7 mps 745 mmHg 93%
    04:00 +2°C° 0.8 mm 7 mps 745 mmHg 93%
    05:00 +2°C° 0.8 mm 7 mps 744 mmHg 94%
    06:00 +3°C° 0.8 mm 7 mps 744 mmHg 94%
    07:00 +3°C° 1.1 mm 7 mps 744 mmHg 94%
    08:00 +3°C° 1.1 mm 7 mps 744 mmHg 95%
    09:00 +3°C° 1.1 mm 7 mps 744 mmHg 95%
    10:00 +3°C° 1.5 mm 7 mps 744 mmHg 95%
    11:00 +4°C° 1.5 mm 7 mps 744 mmHg 95%
    12:00 +4°C° 1.5 mm 6 mps 745 mmHg 95%
    13:00 +4°C° 0.1 mm 7 mps 744 mmHg 94%
    14:00 +4°C° 0.1 mm 7 mps 744 mmHg 93%
    15:00 +4°C° 0.1 mm 7 mps 744 mmHg 92%
    16:00 +4°C° 0.4 mm 7 mps 744 mmHg 93%
    17:00 +4°C° 0.4 mm 6 mps 744 mmHg 93%
    18:00 +4°C° 0.4 mm 6 mps 744 mmHg 93%
    19:00 +4°C° 0.2 mm 6 mps 744 mmHg 92%
    20:00 +4°C° 0.2 mm 6 mps 744 mmHg 92%
    21:00 +5°C° 0.2 mm 5 mps 744 mmHg 91%
    22:00 +5°C° 0.1 mm 5 mps 744 mmHg 91%
    23:00 +5°C° 0.1 mm 5 mps 744 mmHg 92%

    29 October, Tuesday

    Time Temperature Precipitation Wind Pressure Humidity
    00:00 +5°C° 0.1 mm 5 mps 744 mmHg 92%
    01:00 +5°C° 0 mm 5 mps 744 mmHg 93%
    02:00 +6°C° 0 mm 5 mps 744 mmHg 93%
    03:00 +6°C° 0 mm 5 mps 744 mmHg 93%
    04:00 +6°C° 0.4 mm 5 mps 744 mmHg 94%
    05:00 +5°C° 0.4 mm 5 mps 744 mmHg 94%
    06:00 +5°C° 0.4 mm 5 mps 744 mmHg 95%
    07:00 +5°C° 0.5 mm 5 mps 744 mmHg 94%
    08:00 +6°C° 0.5 mm 5 mps 744 mmHg 94%
    09:00 +6°C° 0.5 mm 5 mps 744 mmHg 94%
    10:00 +6°C° 0.1 mm 5 mps 745 mmHg 93%
    11:00 +6°C° 0.1 mm 5 mps 745 mmHg 91%
    12:00 +7°C° 0.1 mm 5 mps 745 mmHg 90%
    13:00 +7°C° 0 mm 4 mps 745 mmHg 89%
    14:00 +7°C° 0 mm 4 mps 745 mmHg 88%
    15:00 +8°C° 0 mm 4 mps 745 mmHg 87%
    16:00 +7°C° 0 mm 4 mps 745 mmHg 89%
    17:00 +7°C° 0 mm 3 mps 746 mmHg 90%
    18:00 +7°C° 0 mm 3 mps 746 mmHg 92%
    19:00 +7°C° 0 mm 3 mps 746 mmHg 92%
    20:00 +5°C° 0 mm 3 mps 746 mmHg 92%
    21:00 +5°C° 0 mm 3 mps 747 mmHg 92%
    22:00 +6°C° 0 mm 2 mps 747 mmHg 92%
    23:00 +6°C° 0 mm 2 mps 746 mmHg 92%
    Show more